Weather History for KTOR - June, 2013

Change the Weather History Date:

Friday, June 14, 2013

  Actual Average Record
Temperature  
Mean Temperature 75 °F 66 °F  
Max Temperature 91 °F 81 °F 101 °F (2006)
Min Temperature 59 °F 51 °F 38 °F (2001)
Degree Days  
Heating Degree Days 0 3  
Month to date heating degree days 32 55  
Since 1 June heating degree days 32 55  
Since 1 July heating degree days 6512 6566  
Cooling Degree Days 10 3  
Month to date cooling degree days 48 34  
Year to date cooling degree days 87 52  
Since 1 June cooling degree days 48 34  
Growing Degree Days 26 (Base 50)    
Moisture  
Dew Point 41 °F    
Average Humidity 38    
Maximum Humidity 67    
Minimum Humidity 8    
Precipitation  
Precipitation T in 0.09 in 0.16 in (2015)
Month to date precipitation 0.14 1.45  
Year to date precipitation 3.90 6.93  
Sea Level Pressure  
Sea Level Pressure 29.79 in    
Wind  
Wind Speed 12 mph (WNW)    
Max Wind Speed 29 mph    
Max Gust Speed 39 mph    
Visibility 10 miles    
Events Rain    
T = Trace of Precipitation, MM = Missing Value Source: NWS Daily Summary

Daily Weather History Graph

Daily Weather History Graph

Search for Another Location

Airport or City:

Trip Planner

Search our weather history database for the weather conditions in past years. The results will help you decide how hot, cold, wet, or windy it might be!

Date:

Astronomy

Jun. 14, 2013 Rise Set
Actual Time 5:20 AM MDT 8:33 PM MDT
Civil Twilight 4:45 AM MDT 9:08 PM MDT
Nautical Twilight 4:01 AM MDT 9:52 PM MDT
Astronomical Twilight 3:07 AM MDT 10:46 PM MDT
Moon 11:02 AM MDT (6/14) No Moon Set
Length of Visible Light 16h 22m
Length of Day
15h 13m
Waxing Crescent, 31% of the Moon is Illuminated
Jun 14
Waxing Crescent
Jun 16
First Quarter
Jun 23
Full
Jun 29
Last Quarter
Jul 8
New

Hourly Weather History & Observations

Time (MDT) Temp. Dew Point Humidity Pressure Visibility Wind Dir Wind Speed Gust Speed Precip Events Conditions
12:53 AM 63.0 °F 48.0 °F 58% 29.73 in 10.0 mi East 6.9 mph - N/A   Clear
1:53 AM 63.0 °F 48.0 °F 58% 29.71 in 10.0 mi Calm Calm - N/A   Clear
2:53 AM 66.9 °F 46.9 °F 49% 29.68 in 10.0 mi SSE 8.1 mph - N/A   Clear
3:53 AM 66.0 °F 46.9 °F 50% 29.68 in 10.0 mi NW 5.8 mph - N/A   Clear
4:53 AM 64.9 °F 48.0 °F 54% 29.69 in 10.0 mi South 11.5 mph - N/A   Clear
5:53 AM 66.0 °F 44.1 °F 45% 29.73 in 10.0 mi WNW 17.3 mph 24.2 mph N/A   Clear
6:53 AM 62.1 °F 52.0 °F 70% 29.81 in 10.0 mi NW 13.8 mph 23.0 mph N/A   Clear
7:53 AM 61.0 °F 48.9 °F 64% 29.83 in 10.0 mi NW 18.4 mph 26.5 mph N/A   Clear
8:53 AM 64.9 °F 48.9 °F 56% 29.85 in 10.0 mi NW 13.8 mph - N/A   Clear
9:53 AM 71.1 °F 48.9 °F 45% 29.84 in 10.0 mi West 15.0 mph 20.7 mph N/A   Clear
10:53 AM 77.0 °F 46.9 °F 34% 29.84 in 10.0 mi WNW 12.7 mph 23.0 mph N/A   Clear
11:53 AM 80.1 °F 45.0 °F 29% 29.83 in 10.0 mi WNW 11.5 mph - N/A   Clear
12:53 PM 82.0 °F 39.0 °F 22% 29.81 in 10.0 mi NW 8.1 mph - N/A   Clear
1:53 PM 84.9 °F 37.0 °F 18% 29.79 in 10.0 mi Calm Calm - N/A   Clear
2:53 PM 90.0 °F 30.9 °F 12% 29.73 in 10.0 mi NW 10.4 mph 20.7 mph N/A   Clear
3:15 PM 89.6 °F 21.2 °F 8% 29.90 in 10.0 mi WNW 12.7 mph 21.9 mph N/A   Clear
3:53 PM 88.0 °F 19.9 °F 8% 29.73 in 10.0 mi NW 8.1 mph 20.7 mph N/A   Clear
4:53 PM 89.1 °F 19.0 °F 8% 29.71 in 10.0 mi NNW 8.1 mph 17.3 mph N/A   Clear
5:53 PM 89.1 °F 25.0 °F 10% 29.71 in 10.0 mi North 8.1 mph - N/A   Clear
6:53 PM 86.0 °F 30.9 °F 14% 29.74 in 10.0 mi NE 5.8 mph - N/A   Clear
7:53 PM 81.0 °F 43.0 °F 26% 29.76 in 10.0 mi East 15.0 mph 19.6 mph N/A   Clear
8:07 PM 80.6 °F 48.2 °F 32% 29.90 in 10.0 mi East 17.3 mph 25.3 mph N/A   Clear
8:53 PM 79.0 °F 51.1 °F 38% 29.78 in 10.0 mi SE 19.6 mph 25.3 mph N/A   Mostly Cloudy
9:32 PM 75.2 °F 42.8 °F 31% 29.99 in 10.0 mi SSW 13.8 mph 35.7 mph 0.00 in Rain Light Rain
9:53 PM 77.0 °F 36.0 °F 23% 29.85 in 10.0 mi SW 12.7 mph 28.8 mph 0.00 in   Overcast
10:53 PM 72.0 °F 35.1 °F 26% 29.79 in 10.0 mi South 9.2 mph - N/A   Clear
11:53 PM 71.1 °F 46.0 °F 41% 29.85 in 10.0 mi South 23.0 mph 35.7 mph N/A   Clear